No;Time;Interval(mi);Indoor Humidity(%);Indoor Temperature(�C);Outdoor Humidity(%);Outdoor Temperature(�C);Absolute Pressure(Hpa);Wind(m/s);Gust(m/s);Direction;Relative Pressure(Hpa);Dewpoint(�C);Windchill(�C);Total Rainfall(mm)
1;2019-02-01 00:03:01;15;45;16.8;85;4.5;982.3;0.3;0.7;SW;985.5;2.2;4.5;55.5;
2;2019-02-01 00:18:01;15;45;16.8;85;4.4;982.5;0.7;1.0;W;985.7;2.1;4.4;55.5;
3;2019-02-01 00:33:01;15;45;16.8;85;4.4;982.9;1.7;2.4;S;986.1;2.1;2.3;55.5;
4;2019-02-01 00:48:01;15;45;16.8;85;4.3;982.9;0.7;1.0;W;986.1;2.0;4.3;55.5;
5;2019-02-01 01:03:01;15;44;16.8;84;4.2;982.9;0.0;0.3;W;986.1;1.7;4.2;55.5;
6;2019-02-01 01:18:01;15;44;16.8;85;4.1;982.8;1.4;1.7;SW;986.0;1.8;2.6;55.5;
7;2019-02-01 01:33:01;15;44;16.8;85;4.1;982.9;0.3;0.7;W;986.1;1.8;4.1;55.5;
8;2019-02-01 01:48:01;15;44;16.7;85;4.0;982.9;0.0;0.3;WNW;986.1;1.7;4.0;55.5;
9;2019-02-01 02:03:01;15;44;16.7;85;4.0;982.8;0.3;0.7;W;986.0;1.7;4.0;55.5;
10;2019-02-01 02:18:01;15;44;16.7;85;3.9;982.8;0.0;0.3;SE;986.0;1.6;3.9;55.5;
11;2019-02-01 02:33:01;15;44;16.7;85;3.7;982.7;0.0;0.0;S;985.9;1.4;3.7;55.5;
12;2019-02-01 02:48:01;15;44;16.8;86;3.6;982.6;0.0;0.3;W;985.8;1.5;3.6;55.5;
13;2019-02-01 03:03:01;15;44;16.8;86;3.6;982.5;0.0;0.3;W;985.7;1.5;3.6;55.5;
14;2019-02-01 03:18:01;15;44;16.8;86;3.7;982.3;0.0;0.3;W;985.5;1.6;3.7;55.5;
15;2019-02-01 03:33:01;15;43;16.8;86;4.0;982.3;0.0;0.3;SW;985.5;1.9;4.0;55.5;
16;2019-02-01 03:48:01;15;43;16.8;86;4.3;982.4;0.3;0.7;ENE;985.6;2.2;4.3;55.5;
17;2019-02-01 04:03:01;15;43;16.8;86;4.4;982.5;0.0;0.0;W;985.7;2.3;4.4;55.5;
18;2019-02-01 04:18:01;15;43;16.7;86;4.6;982.8;0.0;0.3;W;986.0;2.5;4.6;55.5;
19;2019-02-01 04:33:01;15;43;16.7;87;4.7;982.6;0.0;0.7;NW;985.8;2.7;4.7;55.5;
20;2019-02-01 04:48:01;15;43;16.7;87;4.8;982.5;0.3;0.7;SE;985.7;2.8;4.8;55.5;
21;2019-02-01 05:03:01;15;44;16.8;87;4.7;982.6;0.3;0.7;SW;985.8;2.7;4.7;55.5;
22;2019-02-01 05:18:01;15;44;16.8;87;4.9;982.8;0.0;0.3;W;986.0;2.9;4.9;55.5;
23;2019-02-01 05:33:01;15;44;16.8;87;4.8;982.6;0.0;0.3;NW;985.8;2.8;4.8;55.5;
24;2019-02-01 05:48:01;15;44;16.8;87;4.9;982.6;0.3;0.7;W;985.8;2.9;4.9;55.5;
25;2019-02-01 06:03:01;15;44;16.8;87;4.9;982.7;0.3;0.3;WNW;985.9;2.9;4.9;55.5;
26;2019-02-01 06:18:01;15;44;16.9;87;4.9;982.5;0.0;0.3;SE;985.7;2.9;4.9;55.5;
27;2019-02-01 06:33:01;15;43;16.8;87;4.8;982.6;0.0;0.0;W;985.8;2.8;4.8;55.5;
28;2019-02-01 06:48:01;15;45;16.3;87;4.7;982.8;0.3;0.3;W;986.0;2.7;4.7;55.5;
29;2019-02-01 07:03:01;15;46;16.4;87;4.8;983.0;0.0;0.0;E;986.2;2.8;4.8;55.5;
30;2019-02-01 07:18:01;15;46;16.4;87;5.0;982.9;0.0;0.3;NW;986.1;3.0;5.0;55.5;
31;2019-02-01 07:33:01;15;46;16.4;87;5.2;982.9;0.3;1.0;NW;986.1;3.2;5.2;55.5;
32;2019-02-01 07:48:01;15;47;16.5;87;5.2;982.5;0.3;0.7;SE;985.7;3.2;5.2;55.5;
33;2019-02-01 08:03:01;15;47;16.6;87;5.4;982.8;0.7;1.4;N;986.0;3.4;4.5;55.5;
34;2019-02-01 08:18:01;15;48;16.6;87;5.7;983.0;0.7;1.0;SW;986.2;3.7;5.7;55.5;
35;2019-02-01 08:33:01;15;48;16.7;87;5.9;983.0;0.7;1.4;SW;986.2;3.9;5.1;55.5;
36;2019-02-01 08:48:01;15;47;16.8;86;6.2;983.1;1.0;1.4;S;986.3;4.0;5.4;55.5;
37;2019-02-01 09:03:01;15;47;16.8;86;6.3;983.0;0.7;1.0;W;986.2;4.1;6.3;55.5;
38;2019-02-01 09:18:01;15;47;16.9;86;6.4;983.1;1.0;2.0;E;986.3;4.2;5.0;55.5;
39;2019-02-01 09:33:01;15;46;16.9;86;6.5;983.2;1.4;2.0;W;986.4;4.3;5.1;55.5;
40;2019-02-01 09:48:01;15;46;16.9;86;6.6;982.9;0.7;1.4;SW;986.1;4.4;5.9;55.5;
41;2019-02-01 10:03:01;15;46;16.9;86;7.1;983.1;1.0;1.4;SW;986.3;4.9;6.5;55.5;
42;2019-02-01 10:18:01;15;47;16.9;84;7.3;983.0;1.4;2.0;E;986.2;4.8;6.0;55.5;
43;2019-02-01 10:33:01;15;47;16.9;85;7.3;983.3;1.4;2.0;NW;986.5;4.9;6.0;55.5;
44;2019-02-01 10:48:01;15;48;16.9;80;7.6;983.3;0.0;0.0;W;986.5;4.4;7.6;55.5;
45;2019-02-01 11:03:01;15;48;16.9;80;8.2;983.3;0.0;0.0;W;986.5;5.0;8.2;55.5;
46;2019-02-01 11:18:01;15;47;17.0;77;8.0;983.2;0.3;0.7;W;986.4;4.2;8.0;55.5;
47;2019-02-01 11:33:01;15;47;17.0;77;8.3;983.0;0.0;0.0;W;986.2;4.5;8.3;55.5;
48;2019-02-01 11:48:01;15;46;17.0;77;8.5;983.0;0.0;0.0;W;986.2;4.7;8.5;55.5;
49;2019-02-01 12:03:01;15;46;17.0;75;8.6;983.0;0.3;0.7;ESE;986.2;4.4;8.6;55.5;
50;2019-02-01 12:18:01;15;47;17.0;75;8.3;982.9;0.0;0.3;N;986.1;4.1;8.3;55.5;
51;2019-02-01 12:33:01;15;47;17.0;76;8.2;982.8;0.3;0.7;NE;986.0;4.2;8.2;55.5;
52;2019-02-01 12:48:00;15;47;17.0;76;8.1;982.7;0.0;0.3;W;985.9;4.1;8.1;55.5;
53;2019-02-01 13:03:00;15;47;17.0;75;8.5;982.6;0.7;1.4;S;985.8;4.3;8.0;55.5;
54;2019-02-01 13:18:01;15;48;17.0;74;8.4;982.6;0.3;0.7;W;985.8;4.0;8.4;55.5;
55;2019-02-01 13:33:01;15;47;17.0;75;8.4;982.4;0.3;1.0;W;985.6;4.2;8.4;55.5;
56;2019-02-01 13:48:01;15;47;17.1;77;8.2;982.2;0.7;1.0;W;985.4;4.4;8.2;55.5;
57;2019-02-01 14:03:01;15;47;17.1;78;8.3;982.2;0.7;1.0;SE;985.4;4.7;8.3;55.5;
58;2019-02-01 14:18:01;15;47;17.1;78;8.5;982.1;0.0;0.3;S;985.3;4.9;8.5;55.5;
59;2019-02-01 14:33:01;15;47;17.1;77;8.4;982.2;1.0;1.7;SE;985.4;4.6;7.6;55.5;
60;2019-02-01 14:48:01;15;47;17.1;78;8.1;982.3;0.7;1.0;N;985.5;4.5;8.1;55.5;
61;2019-02-01 15:03:01;15;48;17.1;80;8.1;982.1;0.0;0.3;NW;985.3;4.9;8.1;55.5;
62;2019-02-01 15:18:01;15;48;17.1;80;8.2;982.1;0.0;0.0;NW;985.3;5.0;8.2;55.8;
63;2019-02-01 15:33:01;15;48;17.1;80;8.1;982.4;0.0;0.3;E;985.6;4.9;8.1;55.8;
64;2019-02-01 15:48:01;15;48;17.1;80;8.0;982.4;0.0;0.3;SE;985.6;4.8;8.0;55.8;
65;2019-02-01 16:03:01;15;48;17.1;80;7.9;982.4;0.0;0.3;S;985.6;4.7;7.9;55.8;
66;2019-02-01 16:18:01;15;48;17.1;81;7.8;982.2;0.7;1.0;S;985.4;4.7;7.8;55.8;
67;2019-02-01 16:33:01;15;48;17.1;81;7.7;982.3;0.3;0.7;SE;985.5;4.6;7.7;55.8;
68;2019-02-01 16:48:01;15;48;17.1;81;7.7;982.4;0.3;0.7;S;985.6;4.6;7.7;55.8;
69;2019-02-01 17:03:01;15;48;17.1;81;7.7;982.6;0.0;0.7;NW;985.8;4.6;7.7;55.8;
70;2019-02-01 17:18:01;15;48;17.2;86;7.4;982.8;0.0;0.3;W;986.0;5.2;7.4;55.8;
71;2019-02-01 17:33:01;15;49;17.3;86;7.3;982.9;0.3;0.7;NW;986.1;5.1;7.3;55.8;
72;2019-02-01 17:48:01;15;49;17.3;86;7.2;983.1;0.0;0.7;SE;986.3;5.0;7.2;55.8;
73;2019-02-01 18:03:01;15;49;17.0;86;7.2;983.0;0.0;0.0;NW;986.2;5.0;7.2;55.8;
74;2019-02-01 18:18:01;15;50;16.9;87;7.1;983.3;0.0;0.3;NW;986.5;5.1;7.1;56.1;
75;2019-02-01 18:33:01;15;51;16.9;88;7.0;983.3;0.0;0.0;NW;986.5;5.1;7.0;56.1;
76;2019-02-01 18:48:01;15;51;16.9;88;7.0;983.4;0.0;0.3;SW;986.6;5.1;7.0;56.4;
77;2019-02-01 19:03:01;15;50;17.0;89;7.0;983.5;0.0;0.3;S;986.7;5.3;7.0;56.7;
78;2019-02-01 19:18:01;15;49;17.0;89;6.9;983.6;0.0;0.3;E;986.8;5.2;6.9;57.3;
79;2019-02-01 19:33:01;15;51;16.8;89;6.8;983.7;0.0;0.3;S;986.9;5.1;6.8;57.6;
80;2019-02-01 19:48:01;15;51;16.8;89;6.8;983.8;0.0;0.0;S;987.0;5.1;6.8;57.9;
81;2019-02-01 20:03:00;15;52;16.9;89;6.7;983.9;0.0;0.0;S;987.1;5.0;6.7;58.2;
82;2019-02-01 20:18:00;15;51;16.7;89;6.7;984.1;0.0;0.0;N;987.3;5.0;6.7;58.5;
83;2019-02-01 20:33:01;15;52;16.8;90;6.6;984.2;0.0;0.3;N;987.4;5.1;6.6;58.8;
84;2019-02-01 20:48:01;15;51;17.0;90;6.6;984.3;0.0;0.0;E;987.5;5.1;6.6;59.1;
85;2019-02-01 21:03:01;15;51;16.8;90;6.7;984.3;0.0;0.3;S;987.5;5.2;6.7;59.4;
86;2019-02-01 21:18:01;15;52;16.9;90;6.7;984.3;0.0;0.0;E;987.5;5.2;6.7;60.0;
87;2019-02-01 21:33:01;15;51;17.0;90;6.6;984.5;0.0;0.3;SW;987.7;5.1;6.6;60.3;
88;2019-02-01 21:48:00;15;51;17.1;90;6.4;984.4;0.7;1.4;W;987.6;4.9;5.7;60.6;
89;2019-02-01 22:03:00;15;51;17.3;90;6.3;984.6;0.0;0.7;NE;987.8;4.8;6.3;60.9;
90;2019-02-01 22:18:01;15;51;17.3;89;6.1;984.6;0.0;0.0;SE;987.8;4.4;6.1;60.9;
91;2019-02-01 22:33:01;15;51;17.4;89;6.0;984.7;0.0;0.3;SW;987.9;4.3;6.0;60.9;
92;2019-02-01 22:48:01;15;51;17.4;89;5.9;985.2;0.7;1.4;NE;988.4;4.2;5.1;61.2;
93;2019-02-01 23:03:01;15;50;17.4;89;5.9;985.4;0.3;0.7;NW;988.6;4.2;5.9;61.2;
94;2019-02-01 23:18:01;15;50;17.4;89;5.9;985.4;0.0;0.3;NE;988.6;4.2;5.9;61.2;
95;2019-02-01 23:33:01;15;50;17.4;89;5.8;985.7;0.3;1.0;NE;988.9;4.1;5.8;61.2;
96;2019-02-01 23:48:01;15;49;17.4;89;5.7;986.1;0.0;0.0;SE;989.3;4.0;5.7;61.5;
97;2019-02-02 00:03:01;15;49;17.3;89;5.6;986.2;0.0;0.7;S;989.4;3.9;5.6;61.5;
98;2019-02-02 00:18:01;15;49;17.3;88;5.4;986.1;0.3;0.7;W;989.3;3.6;5.4;61.8;
99;2019-02-02 00:33:01;15;49;17.3;87;5.1;986.3;0.0;0.3;SE;989.5;3.1;5.1;62.1;
100;2019-02-02 00:48:01;15;49;17.3;87;4.9;986.5;0.3;0.7;W;989.7;2.9;4.9;62.4;
101;2019-02-02 01:03:01;15;49;17.3;87;4.9;986.4;0.3;1.0;SE;989.6;2.9;4.9;62.7;
102;2019-02-02 01:18:01;15;48;17.3;88;4.8;987.0;0.0;0.0;W;990.2;3.0;4.8;63.0;
103;2019-02-02 01:33:01;15;48;17.3;88;4.8;987.3;0.0;0.0;W;990.5;3.0;4.8;63.3;
104;2019-02-02 01:48:01;15;48;17.3;88;4.9;987.6;0.0;0.3;W;990.8;3.1;4.9;63.3;
105;2019-02-02 02:03:01;15;48;17.3;88;4.9;987.8;0.0;0.3;W;991.0;3.1;4.9;63.9;
106;2019-02-02 02:18:01;15;48;17.3;87;4.8;987.7;0.3;0.7;W;990.9;2.8;4.8;64.5;
107;2019-02-02 02:33:01;15;48;17.3;87;4.7;988.0;0.0;0.3;W;991.2;2.7;4.7;64.8;
108;2019-02-02 02:48:01;15;48;17.3;87;4.6;988.2;0.3;0.7;W;991.4;2.6;4.6;65.1;
109;2019-02-02 03:03:01;15;48;17.3;87;4.4;988.4;0.3;0.7;W;991.6;2.4;4.4;65.7;
110;2019-02-02 03:18:01;15;48;17.3;87;4.3;988.4;0.0;0.3;W;991.6;2.3;4.3;66.3;
111;2019-02-02 03:33:01;15;48;17.3;87;4.2;988.7;1.0;1.4;S;991.9;2.2;3.2;67.2;
112;2019-02-02 03:48:01;15;47;17.3;87;4.1;988.8;0.0;0.3;SE;992.0;2.1;4.1;67.8;
113;2019-02-02 04:03:01;15;47;17.3;87;4.1;988.9;0.0;0.3;W;992.1;2.1;4.1;68.1;
114;2019-02-02 04:18:01;15;47;17.3;87;4.1;989.2;0.0;0.3;SE;992.4;2.1;4.1;68.4;
115;2019-02-02 04:33:01;15;46;17.3;87;4.1;989.4;0.3;0.7;SE;992.6;2.1;4.1;68.4;
116;2019-02-02 04:48:01;15;46;17.3;87;4.1;989.7;0.0;0.3;SE;992.9;2.1;4.1;68.4;
117;2019-02-02 05:03:01;15;46;17.2;87;4.1;989.7;1.4;2.0;S;992.9;2.1;2.3;68.4;
118;2019-02-02 05:18:01;15;46;17.2;87;4.1;990.0;1.0;1.4;S;993.2;2.1;3.0;68.4;
119;2019-02-02 05:33:01;15;46;17.2;87;4.1;990.2;0.7;1.0;NW;993.4;2.1;4.1;68.4;
120;2019-02-02 05:48:01;15;46;17.2;87;4.1;990.4;0.7;1.4;SE;993.6;2.1;3.0;68.4;
121;2019-02-02 06:03:01;15;46;17.3;86;4.1;990.7;0.7;1.0;S;993.9;2.0;4.1;68.4;
122;2019-02-02 06:18:01;15;45;17.3;86;4.1;990.9;0.7;1.0;SE;994.1;2.0;4.1;68.4;
123;2019-02-02 06:33:01;15;45;17.3;85;4.1;991.4;1.4;2.0;SW;994.6;1.8;2.3;68.4;
124;2019-02-02 06:48:01;15;45;17.3;85;4.0;991.8;0.3;0.7;N;995.0;1.7;4.0;68.4;
125;2019-02-02 07:03:01;15;44;17.2;85;4.0;991.9;0.7;1.0;E;995.1;1.7;4.0;68.4;
126;2019-02-02 07:18:01;15;45;17.3;85;4.0;992.3;0.3;1.0;SW;995.5;1.7;4.0;68.4;
127;2019-02-02 07:33:01;15;45;17.3;84;4.0;992.5;0.3;0.7;W;995.7;1.5;4.0;68.4;
128;2019-02-02 07:48:01;15;45;17.3;84;4.0;993.0;1.4;1.7;WSW;996.2;1.5;2.5;68.4;
129;2019-02-02 08:03:01;15;45;17.3;84;4.0;993.5;0.7;1.0;SW;996.7;1.5;4.0;68.4;
130;2019-02-02 08:18:01;15;45;17.3;84;4.0;993.8;0.7;1.0;N;997.0;1.5;4.0;68.4;
131;2019-02-02 08:33:01;15;44;17.2;84;4.1;993.9;1.4;2.0;SW;997.1;1.6;2.3;68.4;
132;2019-02-02 08:48:01;15;44;17.4;83;4.2;994.3;0.3;0.7;WNW;997.5;1.6;4.2;68.4;
133;2019-02-02 09:03:01;15;44;17.4;83;4.3;994.7;0.7;1.0;NW;997.9;1.7;4.3;68.4;
134;2019-02-02 09:18:01;15;43;17.2;82;4.3;995.0;0.7;1.0;S;998.2;1.5;4.3;68.4;
135;2019-02-02 09:33:01;15;43;17.2;82;4.5;995.3;1.0;1.4;NE;998.5;1.7;3.5;68.4;
136;2019-02-02 09:48:01;15;43;17.3;82;4.8;995.3;0.3;1.0;W;998.5;2.0;4.8;68.4;
137;2019-02-02 10:03:01;15;44;17.3;81;5.0;995.8;0.7;1.0;NE;999.0;2.0;5.0;68.4;
138;2019-02-02 10:18:01;15;46;17.4;81;5.3;996.1;0.7;1.0;S;999.3;2.3;5.3;68.4;
139;2019-02-02 10:33:01;15;46;17.5;80;5.5;996.7;0.3;0.7;E;999.9;2.3;5.5;68.4;
140;2019-02-02 10:48:01;15;42;16.9;79;6.2;996.9;0.3;1.0;E;1000.1;2.8;6.2;68.4;
141;2019-02-02 11:03:01;15;43;16.7;74;6.8;997.3;0.3;1.0;W;1000.5;2.5;6.8;68.4;
142;2019-02-02 11:18:01;15;44;16.7;74;6.2;997.3;0.7;1.7;SW;1000.5;1.9;5.1;68.4;
143;2019-02-02 11:33:01;15;45;16.8;75;5.8;997.6;0.7;1.0;SE;1000.8;1.7;5.8;68.4;
144;2019-02-02 11:48:01;15;46;17.0;76;5.8;998.0;1.0;1.4;NW;1001.2;1.9;5.0;68.4;
145;2019-02-02 12:03:01;15;46;17.1;75;5.6;998.1;1.7;2.7;NE;1001.3;1.5;3.4;68.4;
146;2019-02-02 12:18:01;15;46;17.3;74;5.6;998.5;0.7;1.7;SSE;1001.7;1.3;4.4;68.4;
147;2019-02-02 12:33:01;15;43;16.8;75;5.6;998.5;1.0;3.1;ENE;1001.7;1.5;3.1;68.4;
148;2019-02-02 12:48:01;15;44;16.8;75;5.4;998.7;1.0;2.0;SW;1001.9;1.3;3.8;68.4;
149;2019-02-02 13:03:01;15;45;16.9;77;5.3;998.7;1.4;2.4;SE;1001.9;1.6;3.3;68.4;
150;2019-02-02 13:18:01;15;46;16.9;75;5.4;999.0;1.7;2.7;NW;1002.2;1.3;3.2;68.4;
151;2019-02-02 13:33:01;15;46;17.0;74;5.4;999.2;1.0;1.7;NW;1002.4;1.1;4.1;68.4;
152;2019-02-02 13:48:01;15;46;17.1;73;5.5;999.4;1.4;2.7;WNW;1002.6;1.0;3.3;68.4;
153;2019-02-02 14:03:01;15;42;17.1;73;5.5;999.5;1.7;3.1;NE;1002.7;1.0;3.0;68.4;
154;2019-02-02 14:18:01;15;43;16.9;73;5.4;999.7;1.7;2.7;S;1002.9;1.0;3.2;68.4;
155;2019-02-02 14:33:01;15;43;16.9;74;5.1;1000.0;2.4;4.1;SSW;1003.2;0.9;1.9;68.4;
156;2019-02-02 14:48:01;15;43;16.9;76;5.0;1000.6;1.0;1.7;NE;1003.8;1.1;3.7;68.4;
157;2019-02-02 15:03:01;15;45;16.9;76;5.0;1000.8;0.7;1.0;NW;1004.0;1.1;5.0;68.4;
158;2019-02-02 15:18:01;15;44;17.0;75;5.2;1000.8;1.4;3.1;W;1004.0;1.1;2.7;68.4;
159;2019-02-02 15:33:01;15;44;17.0;72;5.2;1001.3;1.7;2.7;E;1004.5;0.6;3.0;68.4;
160;2019-02-02 15:48:01;15;44;17.0;70;5.2;1001.9;1.0;1.4;S;1005.1;0.2;4.3;68.4;
161;2019-02-02 16:03:01;15;44;17.1;69;5.1;1002.0;1.0;2.0;NW;1005.2;-0.1;3.5;68.4;
162;2019-02-02 16:18:01;15;43;17.1;69;5.2;1002.1;1.0;1.4;W;1005.3;-0.0;4.3;68.4;
163;2019-02-02 16:33:01;15;43;17.1;67;5.1;1002.6;1.4;2.0;W;1005.8;-0.5;3.5;68.4;
164;2019-02-02 16:48:01;15;43;17.1;67;5.1;1002.8;0.3;1.4;NE;1006.0;-0.5;4.2;68.4;
165;2019-02-02 17:03:01;15;42;17.0;66;5.1;1003.3;0.7;1.4;SW;1006.5;-0.7;4.2;68.4;
166;2019-02-02 17:18:01;15;41;17.0;65;5.1;1003.7;0.7;1.0;W;1006.9;-0.9;5.1;68.4;
167;2019-02-02 17:33:01;15;42;16.9;67;5.0;1003.6;0.7;1.7;S;1006.8;-0.6;3.7;68.4;
168;2019-02-02 17:48:01;15;41;16.7;66;5.1;1004.0;0.7;1.4;SSW;1007.2;-0.7;4.2;68.4;
169;2019-02-02 18:03:01;15;42;16.7;67;5.0;1004.3;2.4;3.7;W;1007.5;-0.6;2.0;68.4;
170;2019-02-02 18:18:01;15;47;16.8;67;5.1;1004.6;1.0;1.7;WSW;1007.8;-0.5;3.8;68.4;
171;2019-02-02 18:33:01;15;48;17.0;68;5.0;1004.7;1.4;2.0;W;1007.9;-0.4;3.4;68.4;
172;2019-02-02 18:48:01;15;49;17.1;69;5.0;1005.1;1.0;1.7;N;1008.3;-0.2;3.7;68.4;
173;2019-02-02 19:03:01;15;49;16.9;70;4.9;1005.4;0.7;1.0;NW;1008.6;-0.1;4.9;68.4;
174;2019-02-02 19:18:01;15;50;17.1;71;4.9;1005.5;0.0;0.7;W;1008.7;0.1;4.9;68.4;
175;2019-02-02 19:33:01;15;51;17.4;71;4.8;1006.0;1.0;2.4;NE;1009.2;-0.0;2.7;68.4;
176;2019-02-02 19:48:01;15;49;17.2;73;4.5;1006.1;1.0;1.7;W;1009.3;0.1;3.1;68.4;
177;2019-02-02 20:03:01;15;49;17.3;73;4.5;1006.5;1.7;2.0;NNW;1009.7;0.1;2.8;68.4;
178;2019-02-02 20:18:01;15;47;17.0;72;4.5;1006.7;1.0;2.7;W;1009.9;-0.1;2.1;68.7;
179;2019-02-02 20:33:01;15;53;17.0;73;4.5;1006.6;1.0;1.4;W;1009.8;0.1;3.5;68.7;
180;2019-02-02 20:48:01;15;54;17.2;74;4.4;1007.0;1.4;1.7;WNW;1010.2;0.2;3.0;68.7;
181;2019-02-02 21:03:01;15;53;17.4;74;4.3;1007.3;1.0;2.0;W;1010.5;0.1;2.5;68.7;
182;2019-02-02 21:18:01;15;51;17.4;73;4.3;1007.6;1.4;2.0;W;1010.8;-0.1;2.5;68.7;
183;2019-02-02 21:33:01;15;51;17.4;73;4.3;1007.8;1.7;2.4;W;1011.0;-0.1;2.1;68.7;
184;2019-02-02 21:48:01;15;48;17.1;73;4.4;1008.1;1.0;1.7;W;1011.3;-0.0;3.0;68.7;
185;2019-02-02 22:03:00;15;49;16.9;72;4.4;1008.3;1.0;1.7;SSE;1011.5;-0.2;3.0;68.7;
186;2019-02-02 22:18:00;15;49;17.0;72;4.4;1008.5;1.4;2.4;W;1011.7;-0.2;2.3;68.7;
187;2019-02-02 22:33:01;15;48;17.0;71;4.4;1008.5;1.4;2.4;N;1011.7;-0.4;2.3;68.7;
188;2019-02-02 22:48:01;15;47;17.0;71;4.4;1008.6;1.7;3.1;NW;1011.8;-0.4;1.7;68.7;
189;2019-02-02 23:03:01;15;43;16.8;71;4.4;1009.2;1.4;2.4;SE;1012.4;-0.4;2.3;68.7;
190;2019-02-02 23:18:01;15;43;16.7;71;4.4;1009.4;1.4;2.4;NW;1012.6;-0.4;2.3;68.7;
191;2019-02-02 23:33:01;15;43;16.8;70;4.4;1009.6;0.7;1.7;SW;1012.8;-0.6;3.0;68.7;
192;2019-02-02 23:48:01;15;43;16.8;69;4.4;1009.8;1.4;2.4;SSW;1013.0;-0.8;2.3;68.7;
193;2019-02-03 00:03:01;15;43;16.9;68;4.4;1010.0;0.7;1.0;S;1013.2;-1.0;4.4;68.7;
194;2019-02-03 00:18:01;15;43;16.9;68;4.4;1010.2;1.4;2.0;ESE;1013.4;-1.0;2.7;68.7;
195;2019-02-03 00:33:01;15;42;17.0;68;4.3;1010.2;1.4;2.4;W;1013.4;-1.1;2.1;68.7;
196;2019-02-03 00:48:01;15;42;17.0;69;4.2;1010.5;1.4;2.4;N;1013.7;-1.0;2.0;68.7;
197;2019-02-03 01:03:01;15;41;17.0;69;4.2;1010.6;2.0;3.7;SW;1013.8;-1.0;1.0;68.7;
198;2019-02-03 01:18:01;15;41;17.0;68;4.1;1011.3;1.0;1.7;W;1014.5;-1.3;2.6;68.7;
199;2019-02-03 01:33:01;15;41;17.0;69;4.2;1011.4;0.3;1.0;S;1014.6;-1.0;4.2;68.7;
200;2019-02-03 01:49:01;16;41;17.0;69;4.2;1011.6;0.7;1.7;SE;1014.8;-1.0;2.8;68.7;
201;2019-02-03 02:05:01;16;41;17.0;69;4.2;1011.5;0.0;0.7;NW;1014.7;-1.0;4.2;68.7;
202;2019-02-03 02:21:01;16;41;17.0;68;4.2;1011.9;0.3;1.0;SE;1015.1;-1.2;4.2;68.7;
203;2019-02-03 02:37:01;16;41;17.0;69;4.1;1012.2;0.7;1.0;WNW;1015.4;-1.1;4.1;68.7;
204;2019-02-03 02:53:01;16;41;17.1;69;4.1;1012.3;0.7;1.0;S;1015.5;-1.1;4.1;68.7;
205;2019-02-03 03:08:01;15;40;17.1;68;4.1;1012.5;1.4;2.7;SW;1015.7;-1.3;1.6;68.7;
206;2019-02-03 03:23:01;15;40;17.1;68;4.1;1012.8;2.4;4.1;E;1016.0;-1.3;0.7;68.7;
207;2019-02-03 03:38:01;15;40;17.1;68;4.1;1013.2;1.0;2.0;SE;1016.4;-1.3;2.3;68.7;
208;2019-02-03 03:53:01;15;40;17.1;68;4.0;1013.1;0.7;1.7;E;1016.3;-1.4;2.5;68.7;
209;2019-02-03 04:09:01;16;40;17.1;68;4.0;1013.6;1.0;1.7;WSW;1016.8;-1.4;2.5;68.7;
210;2019-02-03 04:25:01;16;40;17.1;68;4.0;1013.8;0.7;1.4;W;1017.0;-1.4;2.9;68.7;
211;2019-02-03 04:41:01;16;40;17.0;67;4.0;1014.0;1.4;2.4;E;1017.2;-1.6;1.8;68.7;
212;2019-02-03 04:57:01;16;40;17.0;67;3.9;1014.4;1.0;2.0;W;1017.6;-1.7;2.1;68.7;
213;2019-02-03 05:12:01;15;39;17.0;67;3.9;1014.5;1.0;1.7;SSW;1017.7;-1.7;2.4;68.7;
214;2019-02-03 05:27:01;15;39;17.0;67;3.6;1014.8;2.4;4.1;SSW;1018.0;-1.9;0.1;68.7;
215;2019-02-03 05:42:01;15;39;17.0;68;3.3;1015.0;0.7;1.0;W;1018.2;-2.0;3.3;68.7;
216;2019-02-03 05:57:01;15;39;17.1;69;3.1;1015.3;0.7;1.7;SW;1018.5;-2.0;1.5;68.7;
217;2019-02-03 06:13:01;16;39;17.1;70;3.0;1015.5;0.7;1.4;WNW;1018.7;-1.9;1.8;68.7;
218;2019-02-03 06:29:01;16;39;17.1;70;2.9;1016.1;2.4;3.1;NW;1019.3;-2.0;-0.1;68.7;
219;2019-02-03 06:45:01;16;39;17.1;70;2.7;1016.3;0.7;1.7;W;1019.5;-2.2;1.0;68.7;
220;2019-02-03 07:01:01;16;39;17.1;71;2.6;1017.0;0.7;1.4;SSW;1020.2;-2.1;1.3;68.7;
221;2019-02-03 07:17:01;16;39;17.0;71;2.6;1017.2;0.7;1.0;SW;1020.4;-2.1;2.6;68.7;
222;2019-02-03 07:33:01;16;39;17.0;71;2.6;1017.5;0.3;0.7;S;1020.7;-2.1;2.6;68.7;
223;2019-02-03 07:49:01;16;39;17.0;71;2.5;1017.9;0.3;1.0;W;1021.1;-2.2;2.5;68.7;
224;2019-02-03 08:05:01;16;39;17.0;71;2.7;1018.1;1.4;2.4;W;1021.3;-2.0;0.3;68.7;
225;2019-02-03 08:21:01;16;39;17.0;71;3.0;1018.2;0.3;0.7;SE;1021.4;-1.7;3.0;68.7;
226;2019-02-03 08:37:01;16;39;17.0;70;4.0;1018.4;1.0;1.4;WNW;1021.6;-1.0;2.9;68.7;
227;2019-02-03 08:53:01;16;39;17.0;65;5.7;1018.5;1.0;1.7;NW;1021.7;-0.4;4.5;68.7;
228;2019-02-03 09:08:01;15;39;17.0;63;6.0;1018.9;1.0;1.4;W;1022.1;-0.5;5.2;68.7;
229;2019-02-03 09:23:01;15;39;17.1;63;6.4;1019.0;0.3;0.7;NW;1022.2;-0.1;6.4;68.7;
230;2019-02-03 09:38:01;15;41;17.1;61;6.9;1019.3;1.0;1.4;SW;1022.5;-0.1;6.2;68.7;
231;2019-02-03 09:53:01;15;42;17.3;61;6.9;1019.4;1.0;1.4;WNW;1022.6;-0.1;6.2;68.7;
232;2019-02-03 10:08:01;15;40;17.0;60;7.3;1019.5;1.0;1.7;W;1022.7;0.1;6.3;68.7;
233;2019-02-03 10:23:01;15;39;17.0;54;8.1;1019.7;0.3;1.0;WNW;1022.9;-0.6;8.1;68.7;
234;2019-02-03 10:38:01;15;40;17.0;53;7.9;1019.9;0.3;1.0;WNW;1023.1;-1.1;7.9;68.7;
235;2019-02-03 10:53:01;15;40;17.1;53;8.3;1020.0;0.7;1.4;SSE;1023.2;-0.7;7.8;68.7;
236;2019-02-03 11:08:01;15;40;17.2;52;8.0;1020.3;0.7;1.4;SE;1023.5;-1.3;7.5;68.7;
237;2019-02-03 11:23:01;15;42;17.3;53;8.3;1020.0;0.7;1.0;N;1023.2;-0.7;8.3;68.7;
238;2019-02-03 11:38:01;15;42;17.4;50;9.3;1020.1;0.7;1.4;NE;1023.3;-0.6;8.9;68.7;
239;2019-02-03 11:53:01;15;42;17.5;51;9.0;1019.8;1.0;2.0;NNW;1023.0;-0.6;8.0;68.7;
240;2019-02-03 12:08:01;15;41;17.5;52;7.9;1020.3;1.0;1.4;NW;1023.5;-1.3;7.4;68.7;
241;2019-02-03 12:23:01;15;41;17.5;52;8.7;1020.5;0.7;1.4;NW;1023.7;-0.6;8.3;68.7;
242;2019-02-03 12:38:01;15;41;17.5;50;9.4;1020.4;1.4;1.7;W;1023.6;-0.5;8.7;68.7;
243;2019-02-03 12:53:01;15;41;17.4;52;8.2;1020.4;0.7;1.0;W;1023.6;-1.1;8.2;68.7;
244;2019-02-03 13:08:01;15;42;17.4;51;9.0;1020.7;0.7;1.0;E;1023.9;-0.6;9.0;68.7;
245;2019-02-03 13:23:01;15;43;17.2;51;8.2;1020.7;0.7;1.0;W;1023.9;-1.3;8.2;68.7;
246;2019-02-03 13:38:01;15;44;17.3;58;7.4;1020.8;1.0;2.0;W;1024.0;-0.3;6.1;68.7;
247;2019-02-03 13:53:01;15;41;17.0;59;7.3;1021.0;0.7;1.0;W;1024.2;-0.2;7.3;68.7;
248;2019-02-03 14:08:01;15;43;16.9;60;7.2;1021.0;0.3;0.7;SW;1024.2;-0.0;7.2;68.7;
249;2019-02-03 14:23:01;15;43;16.9;50;8.8;1021.1;0.7;1.0;W;1024.3;-1.0;8.8;68.7;
250;2019-02-03 14:38:01;15;42;17.0;50;9.1;1021.2;0.0;0.0;W;1024.4;-0.8;9.1;68.7;
251;2019-02-03 14:53:01;15;42;16.9;51;7.7;1021.4;0.0;0.3;NE;1024.6;-1.8;7.7;68.7;
252;2019-02-03 15:08:01;15;41;16.9;59;7.1;1021.6;0.7;1.0;W;1024.8;-0.4;7.1;68.7;
253;2019-02-03 15:23:01;15;41;17.0;58;6.9;1021.8;1.4;2.0;W;1025.0;-0.8;5.6;68.7;
254;2019-02-03 15:38:01;15;42;17.0;58;6.7;1022.1;0.3;1.0;W;1025.3;-1.0;6.7;68.7;
255;2019-02-03 15:53:01;15;42;17.1;60;6.7;1022.3;0.7;1.0;W;1025.5;-0.5;6.7;68.7;
256;2019-02-03 16:08:01;15;42;17.2;58;6.2;1022.3;0.0;0.3;W;1025.5;-1.4;6.2;68.7;
257;2019-02-03 16:23:01;15;41;16.9;60;5.9;1022.6;0.0;0.0;W;1025.8;-1.3;5.9;68.7;
258;2019-02-03 16:38:01;15;40;16.9;60;5.4;1022.6;0.0;0.3;W;1025.8;-1.7;5.4;68.7;
259;2019-02-03 16:53:01;15;40;17.0;61;5.0;1022.9;0.0;0.3;W;1026.1;-1.9;5.0;68.7;
260;2019-02-03 17:08:01;15;40;17.0;61;4.6;1023.0;0.0;0.0;WSW;1026.2;-2.3;4.6;68.7;
261;2019-02-03 17:23:01;15;40;17.1;62;4.1;1023.5;0.0;0.0;S;1026.7;-2.5;4.1;68.7;
262;2019-02-03 17:38:01;15;40;16.8;63;3.7;1023.8;0.0;0.0;W;1027.0;-2.7;3.7;68.7;
263;2019-02-03 17:53:01;15;40;16.9;65;3.4;1024.1;0.0;0.0;W;1027.3;-2.5;3.4;68.7;
264;2019-02-03 18:08:01;15;37;16.6;66;3.4;1024.2;0.0;0.0;W;1027.4;-2.3;3.4;68.7;
265;2019-02-03 18:23:01;15;39;16.5;66;3.2;1024.5;0.0;0.0;W;1027.7;-2.5;3.2;68.7;
266;2019-02-03 18:38:01;15;41;16.5;67;2.6;1024.1;0.0;0.0;W;1027.3;-2.9;2.6;68.7;
267;2019-02-03 18:53:01;15;42;16.7;70;2.3;1024.2;0.0;0.0;W;1027.4;-2.6;2.3;68.7;
268;2019-02-03 19:08:01;15;42;16.8;70;1.9;1024.1;0.0;0.0;W;1027.3;-3.0;1.9;68.7;
269;2019-02-03 19:23:01;15;39;16.4;72;1.4;1024.1;0.0;0.0;W;1027.3;-3.1;1.4;68.7;
270;2019-02-03 19:38:01;15;39;16.1;73;1.2;1024.2;0.0;0.0;W;1027.4;-3.1;1.2;68.7;
271;2019-02-03 19:53:01;15;44;16.3;74;1.0;1024.7;0.0;0.0;W;1027.9;-3.1;1.0;68.7;
272;2019-02-03 20:08:01;15;46;16.6;75;0.8;1024.6;0.0;0.0;W;1027.8;-3.1;0.8;68.7;
273;2019-02-03 20:23:01;15;46;16.8;78;1.0;1024.7;0.0;0.0;W;1027.9;-2.4;1.0;68.7;
274;2019-02-03 20:38:01;15;41;16.4;78;1.1;1024.9;0.0;0.0;W;1028.1;-2.3;1.1;68.7;
275;2019-02-03 20:53:01;15;42;16.6;77;0.7;1025.2;0.0;0.0;W;1028.4;-2.9;0.7;68.7;
276;2019-02-03 21:08:01;15;42;16.7;78;0.6;1024.8;0.0;0.0;W;1028.0;-2.8;0.6;68.7;
277;2019-02-03 21:23:01;15;43;16.9;80;0.8;1025.1;0.0;0.0;W;1028.3;-2.3;0.8;68.7;
278;2019-02-03 21:38:01;15;43;17.0;79;1.0;1025.3;0.0;0.0;W;1028.5;-2.2;1.0;68.7;
279;2019-02-03 21:53:01;15;42;16.9;78;0.6;1025.3;0.0;0.0;W;1028.5;-2.8;0.6;68.7;
280;2019-02-03 22:08:01;15;43;16.9;80;0.9;1025.4;0.3;0.7;W;1028.6;-2.2;0.9;68.7;
281;2019-02-03 22:23:00;15;42;17.1;77;1.7;1025.1;0.0;0.0;SW;1028.3;-1.9;1.7;68.7;
282;2019-02-03 22:38:00;15;42;17.1;75;1.8;1025.0;0.3;0.7;WSW;1028.2;-2.2;1.8;68.7;
283;2019-02-03 22:53:01;15;41;17.0;74;1.7;1024.9;0.0;0.0;SW;1028.1;-2.4;1.7;68.7;
284;2019-02-03 23:08:01;15;40;17.0;75;1.5;1025.2;0.0;0.3;NW;1028.4;-2.4;1.5;68.7;
285;2019-02-03 23:23:01;15;40;17.0;75;1.4;1025.1;0.0;0.0;W;1028.3;-2.5;1.4;68.7;
286;2019-02-03 23:38:01;15;40;17.0;75;1.2;1025.1;0.0;0.3;W;1028.3;-2.7;1.2;68.7;
287;2019-02-03 23:53:01;15;40;17.0;75;1.1;1025.3;0.0;0.0;W;1028.5;-2.8;1.1;68.7;
288;2019-02-04 00:08:01;15;39;17.0;75;1.3;1025.0;0.3;0.7;NW;1028.2;-2.6;1.3;68.7;
289;2019-02-04 00:23:01;15;39;17.0;75;1.4;1025.0;0.0;0.3;NW;1028.2;-2.5;1.4;68.7;
290;2019-02-04 00:38:01;15;39;17.0;75;1.2;1025.1;0.7;1.0;SW;1028.3;-2.7;1.2;68.7;
291;2019-02-04 00:53:01;15;39;17.0;75;1.2;1024.7;0.3;0.7;W;1027.9;-2.7;1.2;68.7;
292;2019-02-04 01:08:01;15;39;17.0;75;1.2;1025.0;0.0;0.3;SW;1028.2;-2.7;1.2;68.7;
293;2019-02-04 01:23:01;15;39;17.0;75;1.1;1025.2;0.0;0.3;W;1028.4;-2.8;1.1;68.7;
294;2019-02-04 01:38:01;15;38;17.0;75;1.1;1025.0;0.0;0.0;SW;1028.2;-2.8;1.1;68.7;
295;2019-02-04 01:53:01;15;38;17.0;75;1.0;1025.0;0.7;1.0;SW;1028.2;-2.9;1.0;68.7;
296;2019-02-04 02:08:01;15;38;17.0;76;0.7;1025.2;1.0;1.7;SW;1028.4;-3.0;-1.3;68.7;
297;2019-02-04 02:23:01;15;38;17.0;76;0.6;1025.1;0.7;0.7;WSW;1028.3;-3.1;0.6;68.7;
298;2019-02-04 02:38:01;15;38;17.0;77;0.8;1025.3;0.7;1.0;S;1028.5;-2.8;0.8;68.7;